Regional Weather Roundup
Issued by NWS

Home | Current Version | Previous Version | Text Only | Print | Product List | Glossary Off
Versions: 1 2 3 4 5 6 7 8 9 10 11 12 13 14 15 16 17 18 19 20 21 22 23 24 25 26 27 28 29 30 31 32 33 34 35 36 37 38 39 40 41 42 43 44 45 46 47 48 49 50

000
ASUS43 KLMK 130602
RWRKY
KENTUCKY REGIONAL WEATHER ROUNDUP
NATIONAL WEATHER SERVICE LOUISVILLE KY
100 AM EST WED DEC 13 2017

NOTE "FAIR" INDICATES FEW OR NO CLOUDS BELOW 12,000 FEET
WITH NO SIGNIFICANT WEATHER AND/OR OBSTRUCTIONS TO VISIBILITY.

KYZ001>023-026-027-061>063-070>075-130700-
WESTERN AND SOUTH CENTRAL KENTUCKY

CITY           SKY/WX    TMP DP  RH WIND       PRES   REMARKS
PADUCAH        CLOUDY    21  13  71 CALM      30.09F
HENDERSON      CLEAR     23  15  71 S3        30.09F
OWENSBORO      CLEAR     22  14  71 CALM      30.09F
HOPKINSVILLE   CLOUDY    25  11  54 CALM      30.09F
BOWLING GREEN  CLEAR     22  12  65 CALM      30.10F
GLASGOW        NOT AVBL
$$

KYZ024-025-028>034-038-045-046-053-130700-
NORTH CENTRAL KENTUCKY

CITY           SKY/WX    TMP DP  RH WIND       PRES   REMARKS
LOUISVILLE/SDF CLEAR     25   8  48 SW6       30.06S WCI  18
LOUISVILLE/LOU CLEAR     24   8  50 SW3       30.07S
FORT KNOX      CLEAR     20   8  60 W3        30.04S
$$

KYZ035>037-039>044-047>052-055>060-089>105-130700-
NORTHEAST KENTUCKY

CITY           SKY/WX    TMP DP  RH WIND       PRES   REMARKS
LEXINGTON      CLEAR     18   7  62 SW6       30.01F WCI  10
COVINGTON      CLEAR     18   9  68 W8        29.98F WCI   8
FRANKFORT      CLEAR     18   7  62 W5        30.02F WCI  11
$$

KYZ054-064>069-076>088-106>120-130700-
SOUTHEAST KENTUCKY

CITY           SKY/WX    TMP DP  RH WIND       PRES   REMARKS
JACKSON        CLEAR     20   6  55 VRB3      29.97F
LONDON         CLEAR     20   8  60 W5        30.02F WCI  13
SOMERSET       CLEAR     21   9  58 W8        30.07S WCI  12
MIDDLESBORO    CLEAR     24   8  50 W6        30.02F WCI  17
MONTICELLO     CLEAR     21  11  65 W6        30.08S WCI  13
$$





USA.gov is the U.S. government's official web portal to all federal, state and local government web resources and services.